Location: Chapel Hill
(35.9134°N, 79.0560°W)
Time: 19:57:49
(UTC-04:00)

A-11 Canister half - All Passes

Search period start: 01 November 2024 00:00
Search period end: 10 November 2024 23:00
Orbit: 1525 x 1683 km, 47.3° (Epoch: 01 November)

Date Brightness Start Highest point End Pass type
(mag) Time Alt. Az. Time Alt. Az. Time Alt. Az.
01 Nov - 01:41:59 10° SW 01:51:46 83° SE 02:01:15 10° ENE visible
01 Nov - 03:48:17 10° W 03:57:28 48° NNW 04:06:27 10° ENE visible
01 Nov - 05:55:22 10° WNW 06:04:16 44° N 06:13:03 10° E visible
01 Nov - 08:00:55 10° NW 08:10:18 81° NNE 08:19:38 10° ESE daylight
01 Nov - 10:06:41 10° WNW 10:14:37 33° SW 10:22:37 10° S daylight
01 Nov - 23:18:48 10° S 23:25:56 23° SE 23:32:55 10° E night (unlit)
02 Nov - 01:20:12 10° SW 01:30:00 80° SE 01:39:29 10° ENE visible
02 Nov - 03:26:23 10° W 03:35:38 49° NNW 03:44:40 10° ENE visible
02 Nov - 05:33:31 10° WNW 05:42:25 43° N 05:51:10 10° ENE visible
02 Nov - 07:39:07 10° NW 07:48:30 78° NNE 07:57:50 10° ESE daylight
02 Nov - 09:44:48 10° WNW 09:52:54 35° SW 10:01:03 10° SSE daylight
02 Nov - 22:57:22 10° S 23:04:13 21° SE 23:10:55 10° E night (unlit)
03 Nov - 00:58:25 10° SW 01:08:13 76° SE 01:17:42 10° ENE night (unlit)
03 Nov - 02:04:28 10° W 02:13:47 50° NNW 02:22:52 10° ENE visible
03 Nov - 04:11:40 10° WNW 04:20:34 43° N 04:29:18 10° ENE visible
03 Nov - 06:17:20 10° NW 06:26:43 75° NNE 06:36:02 10° ESE visible
03 Nov - 08:22:56 10° WNW 08:31:11 37° SW 08:39:28 10° SSE daylight
03 Nov - 21:35:58 10° SSE 21:42:30 20° SE 21:48:53 10° E night (unlit)
03 Nov - 23:36:38 10° SW 23:46:26 73° SE 23:55:55 10° ENE night (unlit)
04 Nov - 01:42:33 10° W 01:51:56 52° NNW 02:01:04 10° ENE visible
04 Nov - 03:49:47 10° WNW 03:58:42 42° N 04:07:26 10° ENE visible
04 Nov - 05:55:32 10° NW 06:04:56 73° NNE 06:14:13 10° ESE visible
04 Nov - 08:01:04 10° WNW 08:09:28 40° SW 08:17:52 10° SSE daylight
04 Nov - 21:14:37 10° SSE 21:20:47 18° SE 21:26:50 10° E night (unlit)
04 Nov - 23:14:53 10° SW 23:24:40 70° SE 23:34:08 10° ENE night (unlit)
05 Nov - 01:20:39 10° W 01:30:05 53° NNW 01:39:16 10° NE visible
05 Nov - 03:27:54 10° WNW 03:36:50 42° N 03:45:34 10° ENE visible
05 Nov - 05:33:45 10° NW 05:43:08 70° NNE 05:52:24 10° ESE visible
05 Nov - 07:39:13 10° WNW 07:47:45 42° SW 07:56:17 10° SSE daylight
05 Nov - 20:53:18 10° SSE 20:59:03 17° SE 21:04:43 10° E night (unlit)
05 Nov - 22:53:07 10° SW 23:02:53 66° SE 23:12:20 10° ENE night (unlit)
06 Nov - 00:58:44 10° W 01:08:15 55° NNW 01:17:29 10° NE visible
06 Nov - 03:06:02 10° WNW 03:14:58 42° N 03:23:42 10° ENE visible
06 Nov - 05:11:56 10° NW 05:21:20 68° NNE 05:30:35 10° ESE visible
06 Nov - 07:17:22 10° WNW 07:26:01 45° SW 07:34:39 10° SSE daylight
06 Nov - 20:32:03 10° SSE 20:37:20 16° ESE 20:42:32 10° E visible
06 Nov - 22:31:23 10° SW 22:41:07 63° SE 22:50:33 10° ENE night (unlit)
07 Nov - 00:36:49 10° W 00:46:24 56° NNW 00:55:42 10° NE visible
07 Nov - 02:44:08 10° WNW 02:53:06 42° N 03:01:50 10° ENE visible
07 Nov - 04:50:08 10° NW 04:59:32 65° NNE 05:08:45 10° ESE visible
07 Nov - 06:55:32 10° WNW 07:04:18 47° SW 07:13:02 10° SSE daylight
07 Nov - 20:10:54 10° SSE 20:15:37 14° ESE 20:20:17 10° E visible
07 Nov - 22:09:38 10° SW 22:19:20 60° SE 22:28:44 10° ENE night (unlit)
08 Nov - 00:14:56 10° WSW 00:24:34 58° NNW 00:33:54 10° NE visible
08 Nov - 02:22:14 10° WNW 02:31:13 42° N 02:39:58 10° ENE visible
08 Nov - 04:28:20 10° NW 04:37:43 63° NNE 04:46:55 10° ESE visible
08 Nov - 06:33:41 10° WNW 06:42:34 50° SW 06:51:23 10° SSE daylight
08 Nov - 19:49:51 10° SSE 19:53:54 13° ESE 19:57:55 10° E visible
08 Nov - 21:47:54 10° SSW 21:57:34 57° SE 22:06:56 10° ENE visible
08 Nov - 23:53:01 10° WSW 00:02:44 60° NNW 00:12:08 10° NE night (unlit)
09 Nov - 02:00:20 10° WNW 02:09:21 42° N 02:18:07 10° ENE visible
09 Nov - 04:06:31 10° NW 04:15:54 61° NNE 04:25:04 10° ESE visible
09 Nov - 06:11:51 10° WNW 06:20:50 53° SW 06:29:44 10° SSE visible
09 Nov - 08:22:47 10° WSW 08:24:14 10° WSW 08:25:42 10° SW daylight
09 Nov - 19:28:59 10° SE 19:32:11 12° ESE 19:35:22 10° ESE visible
09 Nov - 21:26:12 10° SSW 21:35:48 54° SE 21:45:08 10° ENE visible
09 Nov - 23:31:08 10° WSW 23:40:53 62° NNW 23:50:21 10° NE night (unlit)
10 Nov - 01:38:26 10° WNW 01:47:28 42° N 01:56:16 10° ENE visible
10 Nov - 03:44:42 10° NW 03:54:05 59° NNE 04:03:14 10° ESE visible
10 Nov - 05:50:01 10° WNW 05:59:06 56° SW 06:08:04 10° SSE visible
10 Nov - 07:59:41 10° WSW 08:02:32 12° WSW 08:05:25 10° SW daylight
10 Nov - 19:08:33 10° SE 19:10:29 11° ESE 19:12:24 10° ESE visible
10 Nov - 21:04:30 10° SSW 21:14:02 52° SE 21:23:19 10° ENE visible
